Lid_Strength_Index
2 2 1 1 1 1 1 1 1 1 1 1 2 2 2 2 2 1 4 3 2 -4 -3 1 2 2 1 3 3 3 7 8 8 7 6 4 5 4 3 5 4 3 4 3 1
2 2 2 1 1 1 1 1 1 1 2 2 2 2 1 1 1 2 -0 -2 -2 -3 1 3 4 2 3 4 3 4 6 7 5 5 5 5 5 5 5 5 5 4 3 2 2
2 2 2 2 2 1 1 1 1 1 2 2 2 2 1 1 3 2 -3 -3 -3 -2 1 1 1 2 4 3 5 5 6 5 5 5 4 4 5 4 5 6 5 5 4 3 3
2 2 2 2 2 2 2 1 2 2 2 2 2 1 1 1 6 1 -3 -3 -3 1 1 1 2 4 5 5 6 6 6 6 6 4 4 4 4 5 5 4 3 3 3 3 3
2 2 2 2 2 2 2 2 2 2 2 2 2 1 1 3 3 -0 -3 -2 -1 2 2 2 3 4 6 6 7 7 6 6 5 4 4 4 5 5 5 3 3 3 3 3 3
3 3 3 3 2 2 2 2 2 2 2 2 2 2 2 5 -0 -1 0 1 2 3 2 2 3 3 5 7 7 6 6 5 5 4 4 5 5 5 4 3 3 3 3 3 3
3 3 3 3 3 3 2 2 3 2 1 2 2 1 3 4 -0 -1 1 2 2 3 2 1 2 3 5 6 6 6 6 5 4 4 4 4 6 6 4 4 4 4 3 3 3
3 3 3 3 3 3 3 3 3 1 2 2 1 1 5 1 -1 1 1 2 2 2 1 1 1 2 3 4 5 6 5 7 5 4 4 4 7 5 4 4 5 4 4 4 3
4 4 3 3 3 3 3 3 2 2 1 1 1 2 5 0 1 0 1 3 3 3 1 2 2 3 4 5 6 6 8 8 7 5 5 5 6 5 4 5 5 5 4 4 4
4 4 4 3 3 4 4 3 1 1 -0 -0 0 4 3 4 1 1 1 3 4 3 3 3 3 5 5 6 9 8 8 7 7 6 5 6 6 5 5 5 5 5 5 4 4
4 4 4 4 4 4 3 1 2 3 3 3 4 5 4 1 1 2 2 2 3 3 5 4 6 7 6 6 6 6 7 8 6 5 6 6 6 5 5 5 6 5 5 5 4
5 4 4 4 4 4 3 3 4 4 5 4 4 4 3 2 4 2 1 3 4 6 5 6 7 5 5 5 6 6 7 7 6 6 6 6 6 5 5 6 5 5 5 5 4
5 5 5 5 5 4 3 4 3 3 5 5 4 5 4 2 4 3 2 3 5 6 6 7 6 5 6 6 7 7 7 7 8 6 5 6 7 6 5 5 5 5 4 4 4
4 4 5 6 5 5 3 3 3 3 6 7 6 5 4 3 5 2 2 3 5 6 6 6 5 6 6 7 6 8 6 7 7 7 9 6 10 7 6 6 6 5 5 4 4
4 5 5 6 4 5 3 3 3 3 11 7 6 3 4 5 4 4 1 3 6 6 6 7 6 6 7 6 5 7 6 6 7 7 8 8 9 7 6 6 6 5 5 4 4
4 5 5 4 4 5 4 3 3 8 11 7 6 6 6 5 4 3 4 2 3 5 5 6 4 5 6 5 5 5 6 6 6 7 10 8 9 8 7 7 6 5 5 4 4
5 5 5 3 4 3 3 3 8 11 7 8 7 6 6 7 5 5 6 6 7 8 8 6 6 5 4 6 5 6 7 10 11 11 11 8 9 8 6 5 6 5 5 4 3
6 5 5 3 3 3 3 6 10 9 9 7 7 7 7 6 6 6 6 7 5 6 7 9 10 6 5 6 7 7 7 10 13 12 10 8 10 8 5 5 5 4 4 4 4
6 3 3 2 3 3 5 10 9 9 8 8 8 8 8 7 7 6 6 7 6 5 8 8 9 5 5 5 5 7 8 6 9 8 10 9 8 6 5 6 5 5 4 4 4
5 3 3 2 2 4 6 10 9 8 8 8 9 8 8 8 8 7 7 6 6 5 4 6 9 6 6 5 5 6 5 9 8 12 13 10 9 7 7 6 6 6 5 4 4
5 5 4 3 4 6 9 8 9 7 7 8 9 8 8 8 7 7 7 7 6 5 4 5 7 7 6 7 7 7 8 7 7 9 11 12 10 5 6 5 6 5 5 5 4
5 8 4 3 8 7 8 8 9 8 7 7 7 7 8 8 8 8 8 7 6 5 6 5 6 9 8 6 5 6 7 7 10 11 9 10 9 5 5 5 5 5 4 4 4
5 6 4 4 10 9 7 8 8 8 8 8 8 7 7 8 9 8 8 6 6 5 6 5 7 10 9 7 6 7 6 6 7 8 9 11 9 5 5 6 5 5 5 5 4
4 8 7 6 6 9 9 8 9 7 8 7 7 7 8 8 7 8 8 7 6 5 4 4 7 8 10 9 7 8 7 6 7 9 9 9 8 6 5 6 6 5 5 5 4
3 6 6 9 8 8 8 8 9 8 7 7 8 8 8 9 8 8 7 7 6 6 5 5 9 7 7 7 7 7 7 7 8 7 9 8 8 6 6 6 5 5 5 5 5
4 5 5 5 6 7 9 9 9 7 6 7 7 7 6 8 7 8 7 6 6 5 6 6 9 8 8 7 7 8 7 7 7 7 7 7 7 5 5 5 5 6 5 5 5
3 3 5 8 6 7 7 8 8 7 6 5 6 6 6 6 5 5 5 5 5 7 7 7 7 9 9 8 8 9 7 7 6 6 6 8 6 6 6 6 6 5 5 5 5